Vorticity
nan nan nan nan nan nan nan nan nan nan nan nan nan nan nan nan nan nan nan nan nan nan nan nan nan nan nan nan nan nan nan nan nan nan nan nan nan nan nan nan nan nan nan nan nan
nan 7 7 7 7 7 7 7 7 7 8 9 8 8 8 15 20 7 18 12 14 6 -0 6 3 5 2 6 10 3 6 12 13 8 13 13 8 10 7 3 11 17 12 10 nan
nan 7 6 7 7 7 8 7 7 7 7 9 9 9 10 14 16 19 14 7 12 -2 1 6 1 13 13 5 5 13 12 11 9 7 9 8 6 2 5 14 13 8 6 4 nan
nan 7 7 7 7 7 7 8 8 7 7 10 10 10 16 15 4 17 10 7 6 4 4 5 8 9 18 9 14 11 10 9 8 5 7 7 4 6 9 14 10 7 5 5 nan
nan 7 7 7 7 8 8 8 8 7 8 10 11 14 16 10 10 12 10 8 2 7 8 6 5 9 6 2 16 11 6 6 6 8 9 6 5 8 16 13 7 6 4 4 nan
nan 7 7 7 8 8 8 8 7 8 9 10 11 15 11 4 18 11 5 4 6 5 6 6 4 7 0 12 12 11 8 7 4 7 6 5 8 7 14 11 7 4 4 5 nan
nan 7 7 8 8 8 9 8 7 9 10 11 15 13 9 8 4 5 1 0 8 6 2 1 10 15 12 1 11 12 5 4 6 7 4 10 5 6 12 10 6 4 5 6 nan
nan 8 7 8 9 9 9 8 9 11 14 13 13 11 6 16 6 4 9 6 7 3 4 2 11 8 8 15 6 3 7 13 11 3 6 8 6 10 10 10 9 6 5 6 nan
nan 8 8 8 9 10 9 9 18 22 18 11 9 8 6 10 17 10 7 7 8 6 6 8 7 3 6 11 5 11 7 2 6 9 11 6 6 13 12 8 9 8 7 7 nan
nan 8 7 8 9 11 18 28 22 21 18 7 5 7 13 8 10 11 8 7 8 8 8 9 8 4 5 7 12 8 3 6 7 -1 9 8 7 13 8 6 7 7 8 8 nan
nan 8 8 8 9 13 21 25 16 10 10 10 2 -5 4 10 11 15 10 10 8 8 10 7 7 8 16 12 5 5 9 4 2 -0 5 9 13 17 7 5 2 7 7 8 nan
nan 8 8 8 10 24 19 3 6 5 12 12 3 4 3 9 9 5 10 11 9 8 5 9 7 8 19 13 5 2 -1 1 1 8 12 14 3 4 10 7 11 14 8 6 nan
nan 8 9 8 29 31 8 4 3 12 13 16 22 10 10 8 4 10 10 8 7 8 8 8 5 12 4 -1 7 12 10 1 1 5 5 12 15 2 7 3 12 15 11 7 nan
nan 9 7 25 28 10 7 7 7 14 13 20 22 15 13 9 9 11 8 6 6 9 9 7 8 9 8 5 3 14 25 1 -3 7 22 11 6 9 12 8 20 16 8 9 nan
nan 8 18 26 12 4 4 7 12 11 13 18 9 15 17 6 7 13 8 10 9 5 8 7 9 12 7 13 9 15 20 13 6 -7 5 8 9 13 13 13 10 19 15 9 nan
nan 7 24 23 12 6 2 10 14 12 10 11 8 11 9 9 3 6 15 12 9 7 7 9 9 11 10 8 5 8 2 15 10 6 10 17 5 4 10 10 7 10 11 13 nan
nan 15 25 14 4 3 14 15 12 2 11 11 9 11 9 7 8 11 13 6 7 7 10 11 9 7 6 10 14 7 6 11 9 11 14 10 8 11 7 7 10 5 5 13 nan
nan 35 28 11 4 3 11 11 9 7 1 8 22 10 8 8 9 14 10 7 7 6 10 8 8 12 10 8 14 8 8 5 6 6 10 7 4 14 16 3 1 -0 6 17 nan
nan 34 12 12 12 8 11 9 7 -1 -1 8 15 17 5 9 12 11 7 8 8 8 4 5 12 13 12 8 2 7 9 9 7 7 9 7 3 14 20 6 7 10 5 9 nan
nan 13 16 20 12 5 7 5 -1 1 2 6 15 4 10 17 10 7 8 8 9 8 4 0 11 9 17 16 9 14 3 5 13 15 11 11 9 10 12 14 13 9 13 16 nan
nan 11 17 14 6 7 7 3 3 2 6 14 14 4 6 5 11 18 13 13 10 9 8 7 6 4 15 19 10 3 10 9 15 7 9 9 12 15 8 10 14 17 25 20 nan
nan 11 7 8 8 10 6 5 5 10 11 11 10 9 7 6 8 11 12 12 17 15 9 10 5 14 10 10 11 8 9 7 1 7 11 10 11 17 12 10 14 10 8 22 nan
nan 12 11 8 7 9 8 7 6 15 20 15 6 4 9 14 12 9 9 11 14 22 12 12 6 6 9 14 18 11 8 9 5 13 7 7 11 16 12 10 0 17 17 15 nan
nan 11 14 9 4 1 12 11 6 8 11 14 15 11 8 10 12 15 12 7 23 29 8 10 14 11 8 9 6 6 10 8 8 5 14 5 13 19 6 -1 4 22 25 18 nan
nan 7 9 4 1 5 10 7 6 7 7 8 10 13 14 9 11 8 13 12 20 19 9 5 7 6 7 7 7 14 14 9 6 5 7 8 19 9 4 9 11 15 16 13 nan
nan 8 7 8 5 8 15 13 8 9 11 10 10 11 11 13 8 4 5 15 6 -5 9 15 13 8 6 8 10 19 19 13 7 7 6 11 14 15 12 13 13 10 9 9 nan
nan nan nan nan nan nan nan nan nan nan nan nan nan nan nan nan nan nan nan nan nan nan nan nan nan nan nan nan nan nan nan nan nan nan nan nan nan nan nan nan nan nan nan nan nan
CAPE
1 1 1 1 1 1 0 0 0 0 0 0 1 1 1 0 0 0 0 5 659 1934 2139 820 775 1117 1576 1362 814 237 173 4 0 29 111 212 184 143 55 49 5 0 67 154 331
1 0 1 1 1 1 1 1 0 0 0 0 1 1 2 0 0 0 0 1865 2486 2142 1543 751 1277 1704 1206 195 72 152 15 0 0 64 110 271 63 11 68 108 77 90 119 136 91
1 1 2 1 1 0 1 1 0 0 0 0 1 1 1 0 0 0 2236 2680 2296 2518 895 1290 1413 1172 406 169 124 46 0 0 0 107 85 167 4 0 0 2 89 121 88 7 0
1 1 1 1 0 0 1 0 0 0 0 0 0 2 1 0 0 0 1820 2758 2453 1303 912 707 772 34 5 5 19 1 0 0 0 141 124 87 1 0 15 11 66 73 22 0 0
1 2 2 2 1 1 1 1 1 0 0 0 0 2 0 0 0 82 1770 2703 1699 831 688 475 324 42 6 2 0 1 0 0 0 0 0 32 33 24 63 5 42 44 67 21 0
2 2 2 2 2 3 3 2 2 0 0 0 0 1 0 0 0 156 4 636 156 341 29 47 139 2 7 12 10 18 0 0 0 0 0 0 0 0 2 0 0 2 9 34 11
2 1 1 1 2 3 3 2 0 0 0 0 0 0 0 0 0 0 0 0 0 79 53 21 11 4 0 40 84 5 10 0 0 0 0 0 0 0 0 0 0 0 0 0 0
1 1 1 1 1 2 2 2 0 0 0 0 0 0 0 0 0 0 0 0 0 0 0 0 0 0 2 8 57 189 26 99 4 0 40 2 0 14 0 0 0 0 0 0 0
1 0 0 0 1 1 1 1 0 0 0 0 0 0 0 0 0 0 0 0 0 0 0 35 0 0 0 12 52 75 0 124 84 167 328 525 683 477 0 0 0 0 0 0 0
0 0 0 0 0 0 1 0 0 0 0 0 0 0 0 0 0 0 0 0 0 0 0 6 0 0 18 139 244 109 57 26 72 118 336 235 69 507 3 0 0 0 0 1 0
0 0 0 0 0 0 0 0 0 0 0 0 0 0 0 0 0 0 0 0 0 0 10 0 0 0 0 121 78 80 27 205 176 124 47 127 104 440 309 54 0 0 0 1 0
0 0 0 0 0 0 0 0 0 0 0 0 0 0 0 0 0 0 0 0 0 0 0 0 0 0 87 160 31 29 75 32 41 24 5 41 0 81 3 3 27 0 0 0 8
0 0 0 0 0 0 0 0 0 0 0 0 0 0 0 0 0 0 0 0 0 0 0 0 0 0 107 52 34 110 41 101 10 0 148 46 0 0 17 11 147 116 0 0 16
0 0 0 0 0 0 0 0 0 0 0 0 0 0 0 0 0 0 0 0 0 0 0 0 0 0 1 67 95 59 67 134 78 12 114 122 409 114 32 262 130 438 218 1 20
0 0 0 0 0 0 0 0 0 0 0 0 0 0 0 0 0 0 0 0 0 0 0 0 0 0 0 0 21 0 101 168 34 50 221 258 106 566 195 78 265 427 611 184 18
0 0 0 0 0 0 0 0 0 0 0 0 0 0 0 0 0 0 0 0 0 0 0 0 0 0 0 0 0 0 0 0 12 1 30 105 207 26 8 10 33 478 380 459 102
0 0 0 0 0 0 0 0 0 0 0 0 0 0 0 0 0 0 0 0 0 0 0 0 0 0 0 0 0 0 0 0 0 0 33 92 204 113 2 22 0 0 358 317 250
0 0 0 0 0 0 0 0 0 0 0 0 0 0 0 0 0 0 0 0 0 0 0 0 0 0 0 0 0 0 0 0 0 0 30 11 39 82 7 4 3 0 145 236 331
0 0 0 0 0 0 0 0 0 0 0 0 0 0 0 0 0 0 0 0 0 0 0 0 0 0 0 0 0 0 0 0 0 0 0 18 40 122 191 130 249 218 143 171 536
0 0 0 0 0 0 0 0 0 0 0 0 0 0 0 0 0 0 0 0 0 0 0 0 0 0 0 0 0 0 0 0 0 0 0 5 113 127 70 121 98 10 50 111 631
0 0 0 0 0 0 0 0 0 0 0 0 0 0 0 0 0 0 0 0 0 0 0 0 0 0 0 0 0 0 0 0 0 0 0 10 39 84 103 54 8 0 2 301 824
0 0 0 0 0 0 0 0 0 0 0 0 0 0 0 0 0 0 0 0 0 0 0 0 0 0 0 0 0 0 0 0 0 0 0 0 0 31 55 0 0 0 57 432 802
0 0 0 0 0 0 0 0 0 0 0 0 0 0 0 0 0 0 0 0 0 0 0 0 0 0 0 0 0 0 0 0 0 0 0 0 0 0 54 18 0 3 121 389 669
0 0 0 0 0 0 0 0 0 0 0 0 0 0 0 0 0 0 0 2 39 0 110 6 0 0 0 0 0 0 0 0 0 0 0 0 0 1 0 0 0 0 332 604 725
0 0 0 0 0 0 0 0 0 0 0 0 0 0 0 0 0 0 0 0 0 128 0 0 0 0 0 0 0 0 0 0 0 0 0 0 0 31 7 0 1 52 436 773 860
0 0 0 0 0 0 0 0 0 0 0 0 0 0 0 0 0 0 0 0 0 0 0 0 0 0 0 0 0 0 0 0 0 0 0 0 0 18 11 0 0 363 475 612 974
0 0 0 0 0 0 0 0 0 0 0 0 0 0 0 0 0 0 0 0 0 0 0 0 0 0 0 0 0 0 0 0 0 0 0 0 0 0 50 24 5 22 501 538 848